Погода Лодейное Поле

Хотите узнать прогноз погоды Лодейное Поле? Тогда Вам сюда: Погода Лодейное Поле

Поиск расширенной информации на нашем сайте:

Полезная информация:

Новости сайта



02.01.2020
Опубликован Долгосрочный прогноз погоды по городам России и ближнего зарубежья на январь 2020 года.
Карты: Прогноз на январь и февраль 2020 года, Сравнение прогнозируемой аномалии приземной температуры воздуха на январь 2020 года по разным моделям.




Погода Лодейное Поле - сегодня

Время (UTC), дата Ветер
(°,м/с) 
Видим.   Явления Облачность Т
(°С)
Тd
(°С)
f(%) Тe
(°С)
Pmin
(гПа)
dP
(гПа)
Po
(мм)
O2
(г/м3)
Тmin Tmax R s Состояние
почвы
12 29.11.20 070 (В) 10 км    10/10 540 м 
[Sc]
-1.6 -4.1 83 -3  1033.4  -0.6  773  314           
15 29.11.20 050 (СВ) 10 км    3/3 600 м 
[Sc]
-2.5 -4.4 87 -4  1032.3  -1.1  772  314           
18 29.11.20 060 (СВ) 4000 м  дымка  10/10 270 м 
[St]
-2 -3.7 88 -3  1031  -1.3  771  313    -1.5       
21 29.11.20 080 (В) 4000 м  дымка  10/10 300 м 
[St]
-1.5 -3.4 87 -1  1030.4  -0.6  771  313           
00 30.11.20 070 (В) 4000 м  дымка  10/10 330 м 
[St]
-1 -2.9 87 -2  1028.7  -1.7  769  311           
03 30.11.20 080 (В) 4000 м  дымка  10/10 300 м 
[St]
+0 -1.9 87 +1  1027.2  -1.5  768  310  -2.6         
06 30.11.20 130 (ЮВ) 4000 м  дымка  10/10 330 м 
[St]
+1.1 -1 86 1026.2  -1  767  308  -2         
09 30.11.20 130 (ЮВ) 10 км    10/10 240 м 
[St]
+1.6 +0.1 90 +2  1025.4  -0.8  767  307           
12 30.11.20 130 (ЮВ) 4000 м  ливневой дождь  10/10 570 м кучево-дожд. 
[Cb cap]
+1.4 +0.4 93 +2  1023.8  -1.6  766  307           
15 30.11.20 130 (ЮВ) 4000 м  дымка{ливн. осадки}  10/10 540 м 
[St]
+1 +0.3 95 +2  1022.1  -1.7  764  307      0.5     
18 30.11.20 150 (ЮВ) 4000 м  слаб. дождь со снегом  10/10 270 м 
[Frnb|Ns]
+0.7 +0 95 1020.7  -1.4  763  307    +1.7     
21 30.11.20 180 (Ю) 4000 м  слаб. снег{дождь}  10/10 180 м 
[Frnb|Ns]
+0.3 -0.4 95 1021.4  0.7  764  307           
00 01.12.20 170 (Ю) 4000 м  дымка{снег, дождь}  10/10 400 м 
[Sc]
-0.2 -1.4 92 -1  1021.5  0.1  764  308           
03 01.12.20 150 (ЮВ) 10 км    10/10 700 м 
[Sc]
-0.7 -2.1 90 1021.3  -0.2  764  309  -0.9       
06 01.12.20 170 (Ю) 4000 м  слаб. снег  10/10 540 м 
[Ns]
-0.7 -1.8 92 -2  1021.4  0.1  764  309  -0.9    0.7  <0.5  равномерный
мокрый или
старый снег
100% 
09 01.12.20 180 (Ю) 4000 м  слаб. снег  10/10 240 м 
[Frnb|Ns]
+0 -1.1 92 -1  1022.6  1.2  765  308           
12 01.12.20 200 (Ю) 4000 м  слаб. снег  10/10 300 м 
[Frnb|Ns]
+0.4 -1 90 -1  1023.7  1.1  766  308           
15 01.12.20 190 (Ю) 4000 м  слаб. снег  10/10 210 м 
[Frnb|Ns]
+0.5 -0.5 93 -1  1024.9  1.2  766  308      0.9     
21 01.12.20 200 (Ю) 4000 м  слаб. снег  10/10 180 м 
[Frnb|Ns]
+0.1 -0.5 96 -2  1027.9  1.5  769  310           
00 02.12.20 190 (Ю) 4000 м  слаб. снег  10/10 210 м 
[Frnb|Ns]
+0.2 -0.4 96 -2  1028.9  769  310           
03 02.12.20 200 (Ю) 4000 м  слаб. снег [диам. отлож. мокр. снега 6 мм]  10/10 120 м 
[Frnb|Ns]
+0.4 -0.2 96 1029.7  0.8  770  310  +0.1       
06 02.12.20 190 (Ю) 4000 м  слаб. снег  10/10 100 м 
[Frnb|Ns]
+0.4 -0.2 96 1030.6  0.9  771  310  +0.1    равномерный
мокрый или
старый снег
100% 
09 02.12.20 200 (Ю) 4000 м  слаб. снег  10/10 150 м 
[Frnb|Ns]
+0.5 -0.1 96 1031.7  1.1  772  310           
12 02.12.20 200 (Ю) 4000 м  дымка{снег}  10/10 180 м 
[St]
+0.5 -0.2 95 1032.2  0.5  772  311           
15 02.12.20 180 (Ю) 4000 м  дымка  10/10 270 м 
[St]
+0.1 -0.6 95 +1  1032.4  0.2  772  311         
Время (UTC), дата Ветер
(°,м/с) 
Видим.   Явления Облачность Т
(°С)
Тd
(°С)
f(%) Тe
(°С)
Pmin
(гПа)
dP
(гПа)
Po
(мм)
O2
(г/м3)
Тmin Tmax R s Состояние
почвы

Для получения пояснительной информации подведите курсор к названию столбца.

ПОГОДА Лодейное Поле - архив

Всё, что Вы хотите узнать о погоде Лодейное Поле - удобно и подробно!

Выберите нужную дату (начиная с 1 января 2019* года) и нажмите кнопку "Найти".
Будут отображены архивные сводки погоды по пункту Лодейное Поле, начиная с указанной даты.


Отображать данные в формате CSV (для использования в таблицах Excel)


Внимание! Наш архив погоды предназначен исключительно для личного некоммерческого использования в познавательных целях. Если Вам необходимы официальные справки о состоянии погоды (для производственных, юридических, коммерческих и т.п. целей), обращайтесь в органы Росгидромета.

*Примечание: данная дата относится к архиву по метеостанциям СССР (Россия, СНГ, Балтия).
Архив по метеостанциям Зарубежной Европы и Азии (кроме Китая) хранится 10 дней, по другим регионам земного шара (Китай, Африка, Америка, Австралия, Океания) - 1 день.

Лодейное Поле - район местоположения метеостанции


Название, широта, долгота, высота метеостанции:
Лодейное Поле 60.7°ш. 33.6°д. 23 м над ур. моря [Российская Федерация]

Дополнительная информация

В oтличие oт бoльшинства пoгoдных сайтoв мы публикуем пoдрoбную метеoинфoрмацию в детальнoм прoфессиoнальнoм фoрмате.

Характеристики температуры и влажнoсти вoздуха измеряются на высoте 2 м в тени вдали oт зданий и деревьев.
Скoрoсть ветра измеряется на высoте 10 м (на урoвне рoста челoвека скoрoсть ветра ниже в 1.5-2 раза). Если метеoстанция нахoдится в гoрoде или в лесу, тo скoрoсть ветра занижена на 2-4 м/с пo сравнению с oткрытым местoм. Скoрoсть ветра над акватoриями крупных рек и oзёр, а также на вершинах хoлмoв на 2-5 м/с выше, чем в oбычных услoвиях.
Атмoсфернoе давление в разных тoчках местнoсти мoжет значительнo oтличаться oт давления на метеoстанции, в зависимoсти oт услoвий рельефа (при пoдъёме на 10 м давление пoнижается примернo на 1 мм рт.ст.).